Clearfield, PA

4:27 AM EST on November 18, 2017 (GMT -0500)
Clearfield-Lawrence

Weather History for KFIG - August, 2013

Change the Weather History Date:

Monday, August 5, 2013

  Actual Average (KDUJ) Record (KDUJ)
Temperature  
Mean Temperature 60 °F -  
Max Temperature 73 °F 78 °F 89 °F (1982)
Min Temperature 48 °F 58 °F 45 °F (1972)
Degree Days  
Heating Degree Days 6    
Growing Degree Days 10 (Base 50)    
Moisture  
Dew Point 50 °F    
Average Humidity 77    
Maximum Humidity 100    
Minimum Humidity 41    
Precipitation  
Precipitation 0.01 in - - ()
Sea Level Pressure  
Sea Level Pressure 30.11 in    
Wind  
Wind Speed 1 mph (WNW)    
Max Wind Speed 6 mph    
Max Gust Speed -    
Visibility 8 miles    
Events Fog    
Averages and records for this station are not official NWS values.
T = Trace of Precipitation, MM = Missing Value Source: NWS Daily Summary

Daily Weather History Graph

Daily Weather History Graph

Search for Another Location

Airport or City:

Trip Planner

Search our weather history database for the weather conditions in past years. The results will help you decide how hot, cold, wet, or windy it might be!

Date:

Astronomy

Aug. 05, 2013 Rise Set
Actual Time 6:13 AM EDT 8:24 PM EDT
Civil Twilight 5:43 AM EDT 8:55 PM EDT
Nautical Twilight 5:05 AM EDT 9:32 PM EDT
Astronomical Twilight 4:24 AM EDT 10:13 PM EDT
Moon 5:07 AM EDT (8/5) 7:23 PM EDT (8/5)
Length of Visible Light 15h 12m
Length of Day
14h 11m
Waning Crescent, 1% of the Moon is Illuminated
Aug 5
Waning Crescent
Aug 6
New
Aug 14
First Quarter
Aug 20
Full
Aug 28
Last Quarter

Hourly Weather History & Observations

Time (EDT) Temp. Dew Point Humidity Pressure Visibility Wind Dir Wind Speed Gust Speed Precip Events Conditions
12:54 AM 55.9 °F 51.1 °F 84% 30.09 in 10.0 mi Calm Calm - N/A   Clear
1:54 AM 55.9 °F 52.0 °F 87% 30.09 in 10.0 mi NNW 4.6 mph - N/A   Clear
2:54 AM 53.1 °F 50.0 °F 89% 30.10 in 10.0 mi Calm Calm - N/A   Clear
3:54 AM 53.1 °F 50.0 °F 89% 30.10 in 10.0 mi Calm Calm - N/A   Clear
4:54 AM 50.0 °F 48.9 °F 96% 30.11 in 10.0 mi Calm Calm - N/A   Clear
5:27 AM 48.2 °F 48.2 °F 100% 30.13 in 6.0 mi Calm Calm - N/A   Scattered Clouds
5:35 AM 50.0 °F 48.2 °F 94% 30.13 in 2.5 mi Calm Calm - N/A   Mostly Cloudy
5:52 AM 50.0 °F 48.2 °F 94% 30.13 in 7.0 mi Calm Calm - 0.01 in   Overcast
5:54 AM 50.0 °F 48.0 °F 93% 30.13 in 7.0 mi Calm Calm - 0.01 in   Overcast
6:09 AM 48.2 °F 46.4 °F 93% 30.14 in 1.5 mi Calm Calm - N/A   Overcast
6:13 AM 48.2 °F 46.4 °F 93% 30.14 in 0.2 mi Calm Calm - N/A Fog Fog
6:54 AM 50.0 °F 48.9 °F 96% 30.15 in 0.2 mi Calm Calm - N/A Fog Fog
7:54 AM 51.1 °F 50.0 °F 96% 30.15 in 0.2 mi Calm Calm - N/A Fog Fog
8:54 AM 53.1 °F 53.1 °F 100% 30.15 in 0.2 mi Calm Calm - N/A Fog Fog
9:00 AM 53.6 °F 53.6 °F 100% 30.15 in 1.0 mi Calm Calm - N/A   Mist
9:18 AM 53.6 °F 53.6 °F 100% 30.15 in 4.0 mi Calm Calm - N/A   Mostly Cloudy
9:28 AM 55.4 °F 53.6 °F 94% 30.15 in 10.0 mi Calm Calm - N/A   Scattered Clouds
9:54 AM 60.1 °F 50.0 °F 69% 30.15 in 10.0 mi East 3.5 mph - N/A   Clear
10:54 AM 64.9 °F 48.0 °F 54% 30.14 in 10.0 mi Calm Calm - N/A   Clear
11:54 AM 66.9 °F 48.0 °F 51% 30.13 in 10.0 mi Calm Calm - N/A   Partly Cloudy
12:54 PM 68.0 °F 48.0 °F 49% 30.11 in 10.0 mi West 3.5 mph - N/A   Mostly Cloudy
1:54 PM 70.0 °F 45.0 °F 41% 30.09 in 10.0 mi Variable 4.6 mph - N/A   Mostly Cloudy
2:54 PM 70.0 °F 45.0 °F 41% 30.08 in 10.0 mi Calm Calm - N/A   Mostly Cloudy
3:54 PM 71.1 °F 48.0 °F 44% 30.07 in 10.0 mi WSW 4.6 mph - N/A   Mostly Cloudy
4:54 PM 70.0 °F 46.0 °F 42% 30.07 in 10.0 mi WSW 5.8 mph - N/A   Overcast
5:54 PM 70.0 °F 45.0 °F 41% 30.08 in 10.0 mi West 4.6 mph - N/A   Clear
6:54 PM 68.0 °F 48.9 °F 50% 30.08 in 10.0 mi WSW 4.6 mph - N/A   Clear
7:54 PM 66.0 °F 51.1 °F 59% 30.07 in 10.0 mi Calm Calm - N/A   Clear
8:54 PM 63.0 °F 54.0 °F 72% 30.08 in 10.0 mi Calm Calm - N/A   Clear
9:54 PM 59.0 °F 54.0 °F 83% 30.07 in 10.0 mi Calm Calm - N/A   Clear
10:54 PM 55.9 °F 52.0 °F 87% 30.06 in 10.0 mi North 4.6 mph - N/A   Clear
11:54 PM 54.0 °F 51.1 °F 90% 30.07 in 10.0 mi North 4.6 mph - N/A   Clear